User: anonymous   Login
Location: SAPM � Hemmingford
(45.0500°N, 73.5833°W)
Time: 08:18:20
(UTC-05:00)
Language:

Cosmos 1603 - Orbit

View from above orbital plane
View from above orbital plane
View from above satellite
View from above satellite

Ground track
Ground track

The orbit data is extracted from the following two-line orbital elements,

1 15333U 84106A   18051.92749813 -.00000026 +00000-0 +11187-4 0  9993
2 15333 071.0251 291.5153 0020422 194.1113 165.9442 14.14062092723180
Epoch (UTC): 20 February 2018 22:15:35
Eccentricity: 0.0020422
inclination: 71.0251°
perigee height: 831 km
apogee height: 860 km
right ascension of ascending node: 291.5153°
argument of perigee: 194.1113°
revolutions per day: 14.14062092
mean anomaly at epoch: 165.9442°
orbit number at epoch: 72318

The dashed part of the orbit path shows where the satellite is in the earth's shadow,  

DLR